Time,TemperatureF,DewpointF,PressureIn,WindDirection,WindDirectionDegrees,WindSpeedMPH,WindSpeedGustMPH,Humidity,HourlyPrecipIn,Conditions,Clouds,dailyrainin,SoftwareType,DateUTC
2013-05-28 00:05:00,56.2,36.0,29.98,ESE,115,5.0,-999.0,47,-99.99,,,0.00,weatherlink.com 1.10,2013-05-28 04:05:00,
2013-05-28 00:20:00,55.5,36.0,29.98,SE,134,6.0,-999.0,48,-99.99,,,0.00,weatherlink.com 1.10,2013-05-28 04:20:00,
2013-05-28 00:35:00,55.0,36.0,29.98,SE,140,1.0,-999.0,50,-99.99,,,0.00,weatherlink.com 1.10,2013-05-28 04:35:00,
2013-05-28 00:50:00,54.6,36.0,29.98,SSE,154,4.0,-999.0,49,-99.99,,,0.00,weatherlink.com 1.10,2013-05-28 04:50:00,
2013-05-28 01:05:00,54.2,36.0,29.98,SE,142,4.0,-999.0,51,-99.99,,,0.00,weatherlink.com 1.10,2013-05-28 05:05:00,
2013-05-28 01:20:00,53.6,37.0,29.97,SE,146,4.0,-999.0,53,-99.99,,,0.00,weatherlink.com 1.10,2013-05-28 05:20:00,
2013-05-28 01:35:00,53.1,37.0,29.97,SE,141,0.0,-999.0,55,-99.99,,,0.00,weatherlink.com 1.10,2013-05-28 05:35:00,
2013-05-28 01:50:00,52.6,38.0,29.97,SE,141,0.0,-999.0,57,-99.99,,,0.00,weatherlink.com 1.10,2013-05-28 05:50:00,
2013-05-28 02:05:00,52.0,38.0,29.97,SE,140,0.0,-999.0,59,-99.99,,,0.00,weatherlink.com 1.10,2013-05-28 06:05:00,
2013-05-28 02:21:00,51.8,38.0,29.97,SE,140,2.0,-999.0,60,-99.99,,,0.00,weatherlink.com 1.10,2013-05-28 06:21:00,
2013-05-28 02:36:00,51.9,37.0,29.96,SE,141,5.0,-999.0,58,-99.99,,,0.00,weatherlink.com 1.10,2013-05-28 06:36:00,
2013-05-28 02:51:00,52.2,38.0,29.95,SE,138,4.0,-999.0,59,-99.99,,,0.00,weatherlink.com 1.10,2013-05-28 06:51:00,
2013-05-28 03:06:00,52.3,38.0,29.95,SE,132,4.0,-999.0,58,-99.99,,,0.00,weatherlink.com 1.10,2013-05-28 07:06:00,
2013-05-28 03:21:00,52.7,38.0,29.94,ESE,123,5.0,-999.0,58,-99.99,,,0.00,weatherlink.com 1.10,2013-05-28 07:21:00,
2013-05-28 03:36:00,52.9,39.0,29.94,SE,129,0.0,-999.0,59,-99.99,,,0.00,weatherlink.com 1.10,2013-05-28 07:36:00,
2013-05-28 03:51:00,52.7,39.0,29.94,SE,129,0.0,-999.0,60,-99.99,,,0.00,weatherlink.com 1.10,2013-05-28 07:51:00,
2013-05-28 04:06:00,52.6,39.0,29.93,SE,129,0.0,-999.0,60,-99.99,,,0.00,weatherlink.com 1.10,2013-05-28 08:06:00,
2013-05-28 04:21:00,52.6,39.0,29.93,SE,128,0.0,-999.0,60,-99.99,,,0.00,weatherlink.com 1.10,2013-05-28 08:21:00,
2013-05-28 04:36:00,52.5,39.0,29.93,SE,128,0.0,-999.0,61,-99.99,,,0.00,weatherlink.com 1.10,2013-05-28 08:36:00,
2013-05-28 04:51:00,52.3,40.0,29.92,SE,134,0.0,-999.0,63,-99.99,,,0.00,weatherlink.com 1.10,2013-05-28 08:51:00,
2013-05-28 05:07:00,51.9,40.0,29.93,SE,138,0.0,-999.0,63,-99.99,,,0.00,weatherlink.com 1.10,2013-05-28 09:07:00,
2013-05-28 05:22:00,51.8,39.0,29.93,SSE,148,6.0,-999.0,63,-99.99,,,0.00,weatherlink.com 1.10,2013-05-28 09:22:00,
2013-05-28 05:37:00,51.6,40.0,29.92,SE,138,4.0,-999.0,64,-99.99,,,0.00,weatherlink.com 1.10,2013-05-28 09:37:00,
2013-05-28 05:52:00,51.4,40.0,29.91,SE,134,6.0,-999.0,66,-99.99,,,0.00,weatherlink.com 1.10,2013-05-28 09:52:00,
2013-05-28 06:07:00,51.2,40.0,29.91,SE,142,6.0,-999.0,66,-99.99,,,0.00,weatherlink.com 1.10,2013-05-28 10:07:00,
2013-05-28 06:22:00,51.0,40.0,29.91,SE,134,4.0,-999.0,67,-99.99,,,0.00,weatherlink.com 1.10,2013-05-28 10:22:00,
2013-05-28 06:37:00,50.9,41.0,29.91,SE,137,6.0,-999.0,68,-99.99,,,0.00,weatherlink.com 1.10,2013-05-28 10:37:00,
2013-05-28 06:52:00,50.9,41.0,29.91,SE,134,0.0,-999.0,69,-99.99,,,0.00,weatherlink.com 1.10,2013-05-28 10:52:00,
2013-05-28 07:07:00,51.2,41.0,29.91,SSE,147,0.0,-999.0,69,-99.99,,,0.00,weatherlink.com 1.10,2013-05-28 11:07:00,
2013-05-28 07:22:00,51.5,41.0,29.91,SE,134,7.0,-999.0,68,-99.99,,,0.00,weatherlink.com 1.10,2013-05-28 11:22:00,
2013-05-28 07:37:00,51.6,41.0,29.90,SE,140,2.0,-999.0,68,-99.99,,,0.00,weatherlink.com 1.10,2013-05-28 11:37:00,
2013-05-28 07:53:00,51.9,42.0,29.89,SE,144,6.0,-999.0,68,-99.99,,,0.00,weatherlink.com 1.10,2013-05-28 11:53:00,
2013-05-28 08:08:00,52.3,41.0,29.89,SE,143,5.0,-999.0,66,-99.99,,,0.00,weatherlink.com 1.10,2013-05-28 12:08:00,
2013-05-28 08:23:00,52.6,42.0,29.89,SSE,161,4.0,-999.0,67,-99.99,,,0.00,weatherlink.com 1.10,2013-05-28 12:23:00,
2013-05-28 08:38:00,53.0,42.0,29.88,SE,138,8.0,-999.0,66,-99.99,,,0.00,weatherlink.com 1.10,2013-05-28 12:38:00,
2013-05-28 08:53:00,53.5,43.0,29.88,SE,124,2.0,-999.0,67,-99.99,,,0.00,weatherlink.com 1.10,2013-05-28 12:53:00,
2013-05-28 09:08:00,53.5,44.0,29.87,ESE,115,8.0,-999.0,69,-99.99,,,0.00,weatherlink.com 1.10,2013-05-28 13:08:00,
2013-05-28 09:23:00,53.6,43.0,29.88,SE,146,0.0,-999.0,68,-99.99,,,0.00,weatherlink.com 1.10,2013-05-28 13:23:00,
2013-05-28 09:38:00,53.4,44.0,29.88,SSE,162,0.0,-999.0,70,-99.99,,,0.00,weatherlink.com 1.10,2013-05-28 13:38:00,
2013-05-28 09:53:00,53.2,44.0,29.88,SSE,161,2.0,-999.0,71,-99.99,,,0.00,weatherlink.com 1.10,2013-05-28 13:53:00,
2013-05-28 10:08:00,53.6,45.0,29.88,SE,136,6.0,-999.0,73,-99.99,,,0.00,weatherlink.com 1.10,2013-05-28 14:08:00,
2013-05-28 10:23:00,54.5,45.0,29.87,SE,126,2.0,-999.0,71,-99.99,,,0.00,weatherlink.com 1.10,2013-05-28 14:23:00,
2013-05-28 10:38:00,54.5,45.0,29.87,SE,134,0.0,-999.0,71,-99.99,,,0.00,weatherlink.com 1.10,2013-05-28 14:38:00,
2013-05-28 10:54:00,54.6,46.0,29.86,SSE,150,7.0,-999.0,72,-99.99,,,0.00,weatherlink.com 1.10,2013-05-28 14:54:00,
2013-05-28 11:09:00,55.5,46.0,29.85,SSE,167,7.0,-999.0,71,-99.99,,,0.00,weatherlink.com 1.10,2013-05-28 15:09:00,
2013-05-28 11:24:00,55.5,47.0,29.86,SSE,160,5.0,-999.0,72,-99.99,,,0.00,weatherlink.com 1.10,2013-05-28 15:24:00,
2013-05-28 11:39:00,55.6,47.0,29.86,SSE,153,0.0,-999.0,73,-99.99,,,0.00,weatherlink.com 1.10,2013-05-28 15:39:00,
2013-05-28 11:54:00,55.5,47.0,29.86,South,169,6.0,-999.0,74,-99.99,,,0.00,weatherlink.com 1.10,2013-05-28 15:54:00,
2013-05-28 12:09:00,55.6,47.0,29.86,South,171,4.0,-999.0,74,-99.99,,,0.00,weatherlink.com 1.10,2013-05-28 16:09:00,
2013-05-28 12:24:00,55.6,47.0,29.86,SE,132,8.0,-999.0,73,-99.99,,,0.00,weatherlink.com 1.10,2013-05-28 16:24:00,
2013-05-28 12:39:00,55.8,48.0,29.85,South,172,0.0,-999.0,75,-99.99,,,0.00,weatherlink.com 1.10,2013-05-28 16:39:00,
2013-05-28 12:54:00,55.6,48.0,29.84,SSE,162,4.0,-999.0,76,-99.99,,,0.00,weatherlink.com 1.10,2013-05-28 16:54:00,
2013-05-28 13:09:00,55.6,49.0,29.84,South,169,0.0,-999.0,77,-99.99,,,0.00,weatherlink.com 1.10,2013-05-28 17:09:00,
2013-05-28 13:24:00,55.8,48.0,29.83,SSE,163,0.0,-999.0,75,-99.99,,,0.00,weatherlink.com 1.10,2013-05-28 17:24:00,
2013-05-28 13:39:00,55.9,48.0,29.83,ESE,123,6.0,-999.0,75,-99.99,,,0.00,weatherlink.com 1.10,2013-05-28 17:39:00,
2013-05-28 13:55:00,55.9,49.0,29.83,SE,144,6.0,-999.0,77,-99.99,,,0.00,weatherlink.com 1.10,2013-05-28 17:55:00,
2013-05-28 14:10:00,55.8,49.0,29.83,SSE,163,6.0,-999.0,78,-99.99,,,0.00,weatherlink.com 1.10,2013-05-28 18:10:00,
2013-05-28 14:25:00,55.6,49.0,29.82,South,171,0.0,-999.0,79,-99.99,,,0.00,weatherlink.com 1.10,2013-05-28 18:25:00,
2013-05-28 14:40:00,55.8,49.0,29.82,SSE,162,0.0,-999.0,78,-99.99,,,0.00,weatherlink.com 1.10,2013-05-28 18:40:00,
2013-05-28 14:55:00,56.2,50.0,29.82,SSE,148,4.0,-999.0,79,-99.99,,,0.00,weatherlink.com 1.10,2013-05-28 18:55:00,
2013-05-28 15:10:00,56.7,50.0,29.82,SE,138,6.0,-999.0,77,-99.99,,,0.00,weatherlink.com 1.10,2013-05-28 19:10:00,
2013-05-28 15:25:00,56.6,50.0,29.82,SSE,153,0.0,-999.0,78,-99.99,,,0.00,weatherlink.com 1.10,2013-05-28 19:25:00,
2013-05-28 15:40:00,56.3,50.0,29.82,SE,125,8.0,-999.0,78,-99.99,,,0.00,weatherlink.com 1.10,2013-05-28 19:40:00,
2013-05-28 15:55:00,55.7,50.0,29.82,SE,132,6.0,-999.0,80,-99.99,,,0.00,weatherlink.com 1.10,2013-05-28 19:55:00,
2013-05-28 16:10:00,55.8,50.0,29.82,SE,126,6.0,-999.0,81,-99.99,,,0.00,weatherlink.com 1.10,2013-05-28 20:10:00,
2013-05-28 16:25:00,55.7,50.0,29.82,SSE,168,7.0,-999.0,82,-99.99,,,0.00,weatherlink.com 1.10,2013-05-28 20:25:00,
2013-05-28 16:40:00,55.4,50.0,29.82,SE,136,8.0,-999.0,83,-99.99,,,0.00,weatherlink.com 1.10,2013-05-28 20:40:00,
2013-05-28 16:56:00,55.3,51.0,29.81,SSE,151,8.0,-999.0,85,-99.99,,,0.00,weatherlink.com 1.10,2013-05-28 20:56:00,
2013-05-28 17:11:00,55.2,51.0,29.81,SE,136,9.0,-999.0,85,-99.99,,,0.00,weatherlink.com 1.10,2013-05-28 21:11:00,
2013-05-28 17:26:00,55.1,51.0,29.80,SSE,167,7.0,-999.0,86,-99.99,,,0.00,weatherlink.com 1.10,2013-05-28 21:26:00,
2013-05-28 17:41:00,55.2,51.0,29.80,SE,143,7.0,-999.0,86,-99.99,,,0.00,weatherlink.com 1.10,2013-05-28 21:41:00,
2013-05-28 17:56:00,54.9,51.0,29.80,South,182,0.0,-999.0,87,-99.99,,,0.00,weatherlink.com 1.10,2013-05-28 21:56:00,
2013-05-28 18:11:00,54.5,51.0,29.79,SSE,162,4.0,-999.0,88,-99.99,,,0.00,weatherlink.com 1.10,2013-05-28 22:11:00,
2013-05-28 18:26:00,54.6,52.0,29.78,SSE,150,6.0,-999.0,89,-99.99,,,0.00,weatherlink.com 1.10,2013-05-28 22:26:00,
2013-05-28 18:41:00,54.6,52.0,29.79,SSE,159,5.0,-999.0,89,-99.99,,,0.00,weatherlink.com 1.10,2013-05-28 22:41:00,
2013-05-28 18:56:00,54.5,51.0,29.79,SE,146,7.0,-999.0,89,-99.99,,,0.00,weatherlink.com 1.10,2013-05-28 22:56:00,
2013-05-28 19:11:00,54.5,52.0,29.78,SSE,156,5.0,-999.0,90,-99.99,,,0.00,weatherlink.com 1.10,2013-05-28 23:11:00,
2013-05-28 19:26:00,54.5,52.0,29.78,SSE,159,7.0,-999.0,90,-99.99,,,0.00,weatherlink.com 1.10,2013-05-28 23:26:00,
2013-05-28 19:41:00,54.4,52.0,29.79,SSE,161,0.0,-999.0,90,-99.99,,,0.00,weatherlink.com 1.10,2013-05-28 23:41:00,
2013-05-28 19:57:00,54.3,52.0,29.79,SSE,161,0.0,-999.0,90,-99.99,,,0.00,weatherlink.com 1.10,2013-05-28 23:57:00,
2013-05-28 20:12:00,54.2,52.0,29.79,South,190,0.0,-999.0,91,-99.99,,,0.00,weatherlink.com 1.10,2013-05-29 00:12:00,
2013-05-28 20:27:00,54.0,52.0,29.79,South,174,0.0,-999.0,91,-99.99,,,0.00,weatherlink.com 1.10,2013-05-29 00:27:00,
2013-05-28 20:42:00,53.8,52.0,29.79,SSE,168,4.0,-999.0,92,-99.99,,,0.00,weatherlink.com 1.10,2013-05-29 00:42:00,
2013-05-28 20:57:00,53.7,52.0,29.78,SSE,165,0.0,-999.0,92,-99.99,,,0.00,weatherlink.com 1.10,2013-05-29 00:57:00,
2013-05-28 21:12:00,53.6,51.0,29.78,SSE,165,0.0,-999.0,92,-99.99,,,0.00,weatherlink.com 1.10,2013-05-29 01:12:00,
2013-05-28 21:27:00,53.4,51.0,29.77,SSE,165,0.0,-999.0,92,-99.99,,,0.00,weatherlink.com 1.10,2013-05-29 01:27:00,
2013-05-28 21:42:00,53.3,51.0,29.76,SSE,165,0.0,-999.0,93,-99.99,,,0.00,weatherlink.com 1.10,2013-05-29 01:42:00,
2013-05-28 21:57:00,53.2,51.0,29.76,SSE,165,0.0,-999.0,93,-99.99,,,0.00,weatherlink.com 1.10,2013-05-29 01:57:00,
2013-05-28 22:12:00,53.1,51.0,29.76,SSE,165,0.0,-999.0,93,-99.99,,,0.00,weatherlink.com 1.10,2013-05-29 02:12:00,
2013-05-28 22:27:00,53.1,51.0,29.76,SSE,165,0.0,-999.0,93,-99.99,,,0.00,weatherlink.com 1.10,2013-05-29 02:27:00,
2013-05-28 22:42:00,53.0,51.0,29.77,SSE,165,0.0,-999.0,93,-99.99,,,0.00,weatherlink.com 1.10,2013-05-29 02:42:00,
2013-05-28 22:57:00,53.0,51.0,29.77,SSE,165,0.0,-999.0,94,-99.99,,,0.00,weatherlink.com 1.10,2013-05-29 02:57:00,
2013-05-28 23:14:00,52.9,51.0,29.77,SSE,165,0.0,-999.0,94,-99.99,,,0.00,weatherlink.com 1.10,2013-05-29 03:14:00,
2013-05-28 23:28:00,52.8,51.0,29.77,SSE,165,0.0,-999.0,94,-99.99,,,0.00,weatherlink.com 1.10,2013-05-29 03:28:00,
2013-05-28 23:43:00,52.8,51.0,29.77,SSE,165,0.0,-999.0,94,-99.99,,,0.00,weatherlink.com 1.10,2013-05-29 03:43:00,
2013-05-28 23:58:00,52.7,51.0,29.77,SSE,165,0.0,-999.0,94,-99.99,,,0.00,weatherlink.com 1.10,2013-05-29 03:58:00,